| time (UTC) | temp F | wind direction | speed MPH | gust MPH | rain 1hr in | rain 24hr in | rain mn in | humidity % | barometer mb |
| 20260504205925 | 59 | 5 | 3.0 | 9.0 | 0.00 | 0.00 | 0.00 | 80 | 1013.7 |
| 20260504204922 | 60 | 333 | 5.0 | 11.0 | 0.00 | 0.00 | 0.00 | 77 | 1014.0 |
| 20260504204309 | 61 | 315 | 5.0 | 11.0 | 0.00 | 0.00 | 0.00 | 72 | 1013.5 |
| 20260504203944 | 60 | 333 | 4.0 | 7.0 | 0.00 | 0.00 | 0.00 | 73 | 1013.8 |
| 20260504202354 | 61 | 0 | 6.0 | 13.0 | 0.00 | 0.00 | 0.00 | 72 | 1013.5 |
| 20260504200919 | 61 | 311 | 6.0 | 14.0 | 0.00 | 0.00 | 0.00 | 71 | 1013.6 |
| 20260504200355 | 62 | 305 | 4.0 | 11.0 | 0.00 | 0.00 | 0.00 | 71 | 1013.6 |
| 20260504194919 | 62 | 312 | 6.0 | 11.0 | 0.00 | 0.00 | 0.00 | 71 | 1013.8 |
| 20260504194400 | 62 | 341 | 5.0 | 10.0 | 0.00 | 0.00 | 0.00 | 69 | 1013.7 |
| 20260504192919 | 63 | 267 | 5.0 | 13.0 | 0.00 | 0.00 | 0.00 | 70 | 1013.6 |
| 20260504191919 | 63 | 30 | 5.0 | 12.0 | 0.00 | 0.00 | 0.00 | 70 | 1013.7 |
| 20260504190917 | 62 | 18 | 5.0 | 10.0 | 0.00 | 0.00 | 0.00 | 70 | 1013.7 |
| 20260504185916 | 63 | 5 | 5.0 | 13.0 | 0.00 | 0.00 | 0.00 | 70 | 1013.6 |
| 20260504184905 | 63 | 13 | 7.0 | 13.0 | 0.00 | 0.00 | 0.00 | 69 | 1013.6 |
| 20260504183900 | 63 | 314 | 5.0 | 12.0 | 0.00 | 0.00 | 0.00 | 70 | 1013.8 |
| 20260504182859 | 62 | 342 | 4.0 | 9.0 | 0.00 | 0.00 | 0.00 | 71 | 1013.8 |
| 20260504181858 | 62 | 328 | 4.0 | 9.0 | 0.00 | 0.00 | 0.00 | 69 | 1013.9 |
| 20260504180859 | 62 | 32 | 4.0 | 10.0 | 0.00 | 0.00 | 0.00 | 69 | 1013.9 |
| 20260504175859 | 62 | 331 | 3.0 | 8.0 | 0.00 | 0.00 | 0.00 | 71 | 1013.9 |
| 20260504174900 | 62 | 335 | 5.0 | 12.0 | 0.00 | 0.00 | 0.00 | 71 | 1013.8 |
| 20260504173859 | 61 | 264 | 6.0 | 12.0 | 0.00 | 0.00 | 0.00 | 70 | 1013.8 |
| 20260504172900 | 61 | 0 | 5.0 | 13.0 | 0.00 | 0.00 | 0.00 | 71 | 1013.6 |
| 20260504171859 | 60 | 323 | 5.0 | 12.0 | 0.00 | 0.00 | 0.00 | 72 | 1013.6 |
| 20260504170851 | 60 | 341 | 5.0 | 13.0 | 0.00 | 0.00 | 0.00 | 72 | 1013.7 |
| 20260504150749 | 53 | 167 | 0.0 | 0.0 | 0.00 | 0.00 | 0.00 | 91 | 1013.7 |
| 20260504140706 | 51 | 111 | 0.0 | 2.0 | 0.00 | 0.00 | 0.00 | 93 | 1013.4 |
| 20260504130621 | 51 | 132 | 0.0 | 0.0 | 0.00 | 0.00 | 0.00 | 94 | 1013.4 |
| 20260504110338 | 53 | 123 | 0.0 | 1.0 | 0.00 | 0.00 | 0.00 | 90 | 1012.7 |
| 20260504100322 | 53 | 115 | 0.0 | 0.0 | 0.00 | 0.00 | 0.00 | 89 | 1012.6 |
| 20260504100229 | 53 | 113 | 0.0 | 0.0 | 0.00 | 0.00 | 0.00 | 89 | 1012.7 |
| 20260504081205 | 56 | 151 | 0.0 | 2.0 | 0.00 | 0.00 | 0.00 | 84 | 1012.9 |
| 20260504080204 | 56 | 127 | 0.0 | 4.0 | 0.00 | 0.00 | 0.00 | 83 | 1013.0 |
| 20260504050507 | 57 | 331 | 2.0 | 6.0 | 0.00 | 0.00 | 0.00 | 76 | 1012.7 |
| 20260504045026 | 57 | 336 | 2.0 | 6.0 | 0.00 | 0.00 | 0.00 | 76 | 1012.7 |
| 20260504044024 | 57 | 291 | 0.0 | 4.0 | 0.00 | 0.00 | 0.00 | 77 | 1012.7 |
| 20260504043018 | 58 | 345 | 2.0 | 4.0 | 0.00 | 0.00 | 0.00 | 76 | 1012.5 |
| 20260504042011 | 58 | 336 | 1.0 | 4.0 | 0.00 | 0.00 | 0.00 | 75 | 1012.4 |
| 20260504041010 | 58 | 337 | 0.0 | 3.0 | 0.00 | 0.00 | 0.00 | 75 | 1012.3 |
| 20260504040003 | 58 | 313 | 1.0 | 3.0 | 0.00 | 0.00 | 0.00 | 75 | 1012.2 |
| 20260504034950 | 58 | 267 | 1.0 | 4.0 | 0.00 | 0.00 | 0.00 | 75 | 1012.1 |
| 20260504033947 | 58 | 340 | 2.0 | 5.0 | 0.00 | 0.00 | 0.00 | 74 | 1012.0 |
| 20260504032947 | 58 | 292 | 1.0 | 2.0 | 0.00 | 0.00 | 0.00 | 75 | 1011.9 |
| 20260504031935 | 58 | 277 | 1.0 | 5.0 | 0.00 | 0.00 | 0.00 | 74 | 1011.7 |
| 20260504030935 | 58 | 257 | 0.0 | 2.0 | 0.00 | 0.00 | 0.00 | 75 | 1011.5 |
| 20260504025933 | 59 | 267 | 1.0 | 4.0 | 0.00 | 0.00 | 0.00 | 74 | 1011.6 |
| 20260504024930 | 59 | 250 | 3.0 | 7.0 | 0.00 | 0.00 | 0.00 | 73 | 1011.5 |
| 20260504023930 | 59 | 274 | 3.0 | 6.0 | 0.00 | 0.00 | 0.00 | 73 | 1011.5 |
| 20260504022929 | 59 | 276 | 3.0 | 7.0 | 0.00 | 0.00 | 0.00 | 72 | 1011.5 |
| 20260504021927 | 59 | 283 | 3.0 | 6.0 | 0.00 | 0.00 | 0.00 | 72 | 1011.3 |
| 20260504020927 | 59 | 303 | 2.0 | 5.0 | 0.00 | 0.00 | 0.00 | 72 | 1011.5 |
| 20260504015927 | 60 | 268 | 2.0 | 5.0 | 0.00 | 0.00 | 0.00 | 72 | 1011.6 |
| 20260504014926 | 60 | 268 | 2.0 | 5.0 | 0.00 | 0.00 | 0.00 | 73 | 1011.4 |
| 20260504013927 | 60 | 232 | 2.0 | 6.0 | 0.00 | 0.00 | 0.00 | 73 | 1011.5 |
| 20260504012927 | 60 | 281 | 3.0 | 6.0 | 0.00 | 0.00 | 0.00 | 72 | 1011.6 |
| 20260504012404 | 60 | 271 | 3.0 | 9.0 | 0.00 | 0.00 | 0.00 | 72 | 1011.3 |
| 20260504010908 | 61 | 252 | 2.0 | 6.0 | 0.00 | 0.00 | 0.00 | 71 | 1011.4 |
| 20260504005858 | 61 | 237 | 2.0 | 7.0 | 0.00 | 0.00 | 0.00 | 71 | 1011.3 |
| 20260504004858 | 62 | 248 | 2.0 | 9.0 | 0.00 | 0.00 | 0.00 | 71 | 1011.4 |
| 20260504003859 | 62 | 232 | 3.0 | 6.0 | 0.00 | 0.00 | 0.00 | 70 | 1011.3 |
| 20260504002859 | 62 | 172 | 4.0 | 10.0 | 0.00 | 0.00 | 0.00 | 71 | 1011.3 |
| 20260504001859 | 62 | 215 | 5.0 | 11.0 | 0.00 | 0.00 | 0.00 | 70 | 1011.3 |
| 20260504000859 | 63 | 254 | 4.0 | 9.0 | 0.00 | 0.00 | 0.00 | 69 | 1011.2 |
| 20260503235859 | 64 | 260 | 4.0 | 12.0 | 0.00 | 0.00 | 0.00 | 68 | 1011.1 |
| 20260503234859 | 64 | 99 | 4.0 | 13.0 | 0.00 | 0.00 | 0.00 | 66 | 1010.8 |
| 20260503233900 | 65 | 131 | 3.0 | 11.0 | 0.00 | 0.00 | 0.00 | 66 | 1010.7 |
| 20260503233809 | 65 | 140 | 4.0 | 12.0 | 0.00 | 0.00 | 0.00 | 67 | 1010.7 |
| 20260503231853 | 65 | 103 | 4.0 | 13.0 | 0.00 | 0.00 | 0.00 | 66 | 1010.6 |
| 20260503230853 | 66 | 142 | 3.0 | 12.0 | 0.00 | 0.00 | 0.00 | 63 | 1010.6 |
| 20260503225853 | 66 | 180 | 1.0 | 5.0 | 0.00 | 0.00 | 0.00 | 66 | 1010.6 |
| 20260503224853 | 65 | 184 | 3.0 | 9.0 | 0.00 | 0.00 | 0.00 | 66 | 1010.7 |
| 20260503223852 | 65 | 44 | 2.0 | 9.0 | 0.00 | 0.00 | 0.00 | 66 | 1010.7 |
| 20260503222853 | 65 | 115 | 2.0 | 9.0 | 0.00 | 0.00 | 0.00 | 69 | 1010.9 |
| 20260503222243 | 63 | 106 | 3.0 | 8.0 | 0.00 | 0.00 | 0.00 | 69 | 1011.0 |
| 20260503221911 | 64 | 121 | 3.0 | 6.0 | 0.00 | 0.00 | 0.00 | 71 | 1010.9 |
| 20260503215837 | 63 | 142 | 2.0 | 6.0 | 0.00 | 0.00 | 0.00 | 70 | 1011.0 |
| 20260503214836 | 63 | 98 | 2.0 | 6.0 | 0.00 | 0.00 | 0.00 | 71 | 1011.1 |
| 20260503213837 | 62 | 277 | 2.0 | 6.0 | 0.00 | 0.00 | 0.00 | 73 | 1011.1 |
| 20260503212834 | 62 | 100 | 2.0 | 8.0 | 0.00 | 0.00 | 0.00 | 73 | 1011.1 |
| 20260503211834 | 61 | 146 | 2.0 | 7.0 | 0.00 | 0.00 | 0.00 | 74 | 1011.2 |
| 20260503211311 | 60 | 67 | 4.0 | 9.0 | 0.00 | 0.00 | 0.00 | 74 | 1011.1 |